TAM3446 SBSP-SBRJ

Flight info

Callsign TAM3446
Flight time 0h 37m
Altitude 29000
Route NIBRU UZ171 KEVUN
Aircraft A319/M-SDE3FGHIRWY/LB1

Departure

Time 2026-04-30 21:19
Airport Congonhas–Deputado Freitas Nobre Airport (SBSP)

Arrival

Time 2026-04-30 21:56
Airport Santos Dumont Airport (SBRJ)
Time Latitude Longitude Altitude Speed Heading
2026-04-30 20:57 -23.62784 -46.65780 2601 ft 0 kts 237°
2026-04-30 21:12 -23.62773 -46.65760 2601 ft 4 kts 255°
2026-04-30 21:12 -23.62773 -46.65734 2601 ft 4 kts 303°
2026-04-30 21:12 -23.62784 -46.65722 2601 ft 1 kts 327°
2026-04-30 21:13 -23.62785 -46.65720 2601 ft 0 kts 327°
2026-04-30 21:15 -23.62785 -46.65721 2601 ft 0 kts 327°
2026-04-30 21:15 -23.62779 -46.65725 2601 ft 3 kts 327°
2026-04-30 21:15 -23.62761 -46.65737 2601 ft 7 kts 327°
2026-04-30 21:15 -23.62704 -46.65769 2601 ft 12 kts 334°
2026-04-30 21:16 -23.62612 -46.65817 2601 ft 17 kts 334°
2026-04-30 21:16 -23.62492 -46.65879 2601 ft 21 kts 334°
2026-04-30 21:16 -23.62382 -46.65950 2601 ft 19 kts 328°
2026-04-30 21:16 -23.62264 -46.66033 2600 ft 21 kts 328°
2026-04-30 21:17 -23.62164 -46.66094 2599 ft 15 kts 326°
2026-04-30 21:17 -23.62062 -46.66132 2592 ft 13 kts 21°
2026-04-30 21:17 -23.62022 -46.66088 2588 ft 0 kts 100°
2026-04-30 21:17 -23.62023 -46.66087 2596 ft 0 kts 116°
2026-04-30 21:18 -23.62024 -46.66087 2596 ft 0 kts 129°
2026-04-30 21:18 -23.62031 -46.66084 2589 ft 3 kts 148°
2026-04-30 21:18 -23.62117 -46.66026 2590 ft 45 kts 149°
2026-04-30 21:18 -23.62631 -46.65672 2605 ft 126 kts 148°
2026-04-30 21:19 -23.63514 -46.65075 2937 ft 156 kts 148°
2026-04-30 21:19 -23.64412 -46.64455 3854 ft 148 kts 140°
2026-04-30 21:19 -23.64872 -46.63515 4598 ft 140 kts 104°
2026-04-30 21:19 -23.65217 -46.62469 4927 ft 157 kts 117°
2026-04-30 21:20 -23.65785 -46.61360 5194 ft 178 kts 121°
2026-04-30 21:20 -23.66451 -46.60123 5461 ft 200 kts 122°
2026-04-30 21:20 -23.67199 -46.58735 5736 ft 226 kts 121°
2026-04-30 21:20 -23.68030 -46.57169 6205 ft 251 kts 121°
2026-04-30 21:21 -23.68938 -46.55435 6754 ft 274 kts 120°
2026-04-30 21:21 -23.69891 -46.53593 7560 ft 283 kts 120°
2026-04-30 21:21 -23.71475 -46.49572 9228 ft 296 kts 102°
2026-04-30 21:22 -23.71698 -46.47319 10051 ft 302 kts 90°
2026-04-30 21:22 -23.70771 -46.39963 11690 ft 342 kts 81°
2026-04-30 21:23 -23.70400 -46.37389 12434 ft 346 kts 81°
2026-04-30 21:23 -23.70028 -46.34780 13166 ft 349 kts 81°
2026-04-30 21:23 -23.69272 -46.29473 14508 ft 358 kts 81°
2026-04-30 21:24 -23.68885 -46.26775 15160 ft 363 kts 81°
2026-04-30 21:24 -23.68492 -46.24036 15789 ft 367 kts 81°
2026-04-30 21:24 -23.68096 -46.21273 16412 ft 371 kts 81°
2026-04-30 21:24 -23.67693 -46.18470 17008 ft 376 kts 81°
2026-04-30 21:25 -23.66874 -46.12776 18200 ft 384 kts 81°
2026-04-30 21:25 -23.66459 -46.09881 18761 ft 388 kts 81°
2026-04-30 21:25 -23.66042 -46.06957 19303 ft 393 kts 81°
2026-04-30 21:26 -23.65185 -46.00994 20354 ft 402 kts 81°
2026-04-30 21:26 -23.64751 -45.97966 20857 ft 406 kts 81°
2026-04-30 21:27 -23.63865 -45.91811 21805 ft 415 kts 81°
2026-04-30 21:27 -23.63413 -45.88682 22265 ft 420 kts 81°
2026-04-30 21:27 -23.62958 -45.85528 22730 ft 423 kts 81°
2026-04-30 21:28 -23.62039 -45.79165 23586 ft 432 kts 81°
2026-04-30 21:28 -23.61566 -45.75921 24022 ft 436 kts 81°
2026-04-30 21:28 -23.60600 -45.69338 24875 ft 443 kts 81°
2026-04-30 21:29 -23.60114 -45.66011 25290 ft 447 kts 80°
2026-04-30 21:29 -23.58629 -45.55873 26520 ft 456 kts 80°
2026-04-30 21:30 -23.57618 -45.49006 27301 ft 462 kts 80°
2026-04-30 21:31 -23.55711 -45.38629 28406 ft 470 kts 75°
2026-04-30 21:31 -23.54130 -45.31689 29035 ft 475 kts 75°
2026-04-30 21:32 -23.52609 -45.24840 29099 ft 450 kts 76°
2026-04-30 21:32 -23.51914 -45.21570 29101 ft 438 kts 76°
2026-04-30 21:32 -23.51234 -45.18329 28685 ft 441 kts 76°
2026-04-30 21:32 -23.50546 -45.15059 28156 ft 442 kts 76°
2026-04-30 21:33 -23.49859 -45.11805 27707 ft 440 kts 76°
2026-04-30 21:33 -23.48490 -45.05344 26780 ft 436 kts 76°
2026-04-30 21:33 -23.47805 -45.02137 26338 ft 434 kts 76°
2026-04-30 21:34 -23.47116 -44.98947 25894 ft 431 kts 76°
2026-04-30 21:34 -23.45748 -44.92640 25038 ft 425 kts 76°
2026-04-30 21:34 -23.45061 -44.89522 24585 ft 422 kts 76°
2026-04-30 21:35 -23.44385 -44.86474 24152 ft 418 kts 75°
2026-04-30 21:35 -23.43702 -44.83407 23690 ft 416 kts 76°
2026-04-30 21:35 -23.43021 -44.80360 23221 ft 413 kts 76°
2026-04-30 21:35 -23.42345 -44.77337 22765 ft 409 kts 76°
2026-04-30 21:36 -23.41675 -44.74346 22291 ft 406 kts 76°
2026-04-30 21:36 -23.41010 -44.71374 21829 ft 402 kts 76°
2026-04-30 21:37 -23.39057 -44.62627 20438 ft 391 kts 76°
2026-04-30 21:37 -23.38418 -44.59766 19984 ft 387 kts 76°
2026-04-30 21:37 -23.37786 -44.56935 19528 ft 383 kts 76°
2026-04-30 21:37 -23.37157 -44.54131 19077 ft 380 kts 76°
2026-04-30 21:38 -23.36532 -44.51353 18624 ft 376 kts 76°
2026-04-30 21:38 -23.35910 -44.48600 18175 ft 373 kts 76°
2026-04-30 21:38 -23.35297 -44.45875 17735 ft 369 kts 76°
2026-04-30 21:38 -23.34683 -44.43175 17289 ft 366 kts 74°
2026-04-30 21:39 -23.33788 -44.40611 16854 ft 361 kts 64°
2026-04-30 21:39 -23.32725 -44.38152 16419 ft 358 kts 64°
2026-04-30 21:39 -23.31673 -44.35710 15987 ft 355 kts 64°
2026-04-30 21:39 -23.30635 -44.33291 15548 ft 351 kts 64°
2026-04-30 21:40 -23.29607 -44.30891 15134 ft 348 kts 64°
2026-04-30 21:40 -23.28586 -44.28515 14712 ft 345 kts 64°
2026-04-30 21:40 -23.27576 -44.26163 14294 ft 342 kts 64°
2026-04-30 21:40 -23.26577 -44.23832 13880 ft 339 kts 64°
2026-04-30 21:41 -23.25583 -44.21520 13469 ft 336 kts 64°
2026-04-30 21:41 -23.24597 -44.19228 13063 ft 333 kts 64°
2026-04-30 21:41 -23.23620 -44.16960 12658 ft 330 kts 64°
2026-04-30 21:41 -23.22648 -44.14706 12253 ft 328 kts 64°
2026-04-30 21:42 -23.21681 -44.12473 11858 ft 325 kts 64°
2026-04-30 21:42 -23.20723 -44.10260 11458 ft 322 kts 64°
2026-04-30 21:42 -23.19773 -44.08064 11063 ft 320 kts 64°
2026-04-30 21:42 -23.18811 -44.05898 10895 ft 319 kts 63°
2026-04-30 21:43 -23.17835 -44.03773 10737 ft 318 kts 63°
2026-04-30 21:43 -23.16837 -44.01627 10563 ft 318 kts 63°
2026-04-30 21:43 -23.15844 -43.99488 10398 ft 317 kts 63°
2026-04-30 21:43 -23.14881 -43.97343 10227 ft 313 kts 64°
2026-04-30 21:44 -23.13969 -43.95231 9957 ft 306 kts 65°
2026-04-30 21:44 -23.13088 -43.93148 9860 ft 302 kts 65°
2026-04-30 21:44 -23.12216 -43.91077 9727 ft 301 kts 65°
2026-04-30 21:44 -23.11346 -43.89011 9569 ft 300 kts 65°
2026-04-30 21:45 -23.10474 -43.86951 9408 ft 300 kts 65°
2026-04-30 21:45 -23.09597 -43.84897 9246 ft 299 kts 65°
2026-04-30 21:45 -23.08719 -43.82857 9081 ft 298 kts 65°
2026-04-30 21:45 -23.07843 -43.80828 8926 ft 296 kts 65°
2026-04-30 21:46 -23.06972 -43.78804 8771 ft 295 kts 65°
2026-04-30 21:46 -23.06108 -43.76787 8612 ft 294 kts 65°
2026-04-30 21:46 -23.05246 -43.74771 8454 ft 294 kts 65°
2026-04-30 21:46 -23.04386 -43.72767 8298 ft 293 kts 65°
2026-04-30 21:47 -23.03525 -43.70763 8142 ft 292 kts 65°
2026-04-30 21:47 -23.02670 -43.68770 7927 ft 291 kts 65°
2026-04-30 21:47 -23.01809 -43.66791 7649 ft 289 kts 64°
2026-04-30 21:47 -23.00948 -43.64827 7384 ft 287 kts 64°
2026-04-30 21:48 -23.00090 -43.62869 7116 ft 286 kts 64°
2026-04-30 21:48 -22.99242 -43.60931 6930 ft 284 kts 64°
2026-04-30 21:48 -22.98393 -43.58994 6723 ft 284 kts 64°
2026-04-30 21:48 -22.97543 -43.57071 6558 ft 283 kts 64°
2026-04-30 21:49 -22.96691 -43.55154 6394 ft 282 kts 64°
2026-04-30 21:49 -22.95841 -43.53241 6234 ft 281 kts 64°
2026-04-30 21:49 -22.95001 -43.51332 6062 ft 280 kts 64°
2026-04-30 21:49 -22.94171 -43.49420 5812 ft 279 kts 65°
2026-04-30 21:50 -22.93364 -43.47513 5507 ft 277 kts 65°
2026-04-30 21:50 -22.92572 -43.45628 5222 ft 272 kts 65°
2026-04-30 21:50 -22.91793 -43.43772 4947 ft 269 kts 65°
2026-04-30 21:50 -22.91024 -43.41945 4649 ft 265 kts 65°
2026-04-30 21:51 -22.90256 -43.40132 4323 ft 264 kts 65°
2026-04-30 21:51 -22.89489 -43.38334 4004 ft 262 kts 65°
2026-04-30 21:51 -22.88729 -43.36547 3688 ft 258 kts 65°
2026-04-30 21:51 -22.88031 -43.34783 3385 ft 251 kts 70°
2026-04-30 21:52 -22.87446 -43.33054 3090 ft 243 kts 71°
2026-04-30 21:52 -22.86891 -43.31321 2795 ft 236 kts 72°
2026-04-30 21:52 -22.86375 -43.29684 2514 ft 225 kts 72°
2026-04-30 21:52 -22.85879 -43.28097 2249 ft 221 kts 72°
2026-04-30 21:53 -22.85491 -43.26536 1968 ft 207 kts 89°
2026-04-30 21:53 -22.85647 -43.25082 1760 ft 188 kts 101°
2026-04-30 21:53 -22.85848 -43.23732 1476 ft 173 kts 100°
2026-04-30 21:53 -22.86014 -43.22540 1268 ft 148 kts 101°
2026-04-30 21:54 -22.86160 -43.21489 1076 ft 136 kts 101°
2026-04-30 21:54 -22.86297 -43.20491 890 ft 133 kts 102°
2026-04-30 21:54 -22.86421 -43.19489 670 ft 134 kts 103°
2026-04-30 21:54 -22.86588 -43.18517 639 ft 132 kts 112°
2026-04-30 21:55 -22.87072 -43.17673 573 ft 129 kts 133°
2026-04-30 21:55 -22.87671 -43.16958 538 ft 127 kts 139°
2026-04-30 21:55 -22.88431 -43.16490 478 ft 127 kts 166°
2026-04-30 21:55 -22.89306 -43.16399 262 ft 126 kts 177°
2026-04-30 21:56 -22.90176 -43.16339 106 ft 125 kts 176°
2026-04-30 21:56 -22.91005 -43.16283 22 ft 104 kts 177°
2026-04-30 21:56 -22.91415 -43.16259 20 ft 21 kts 177°
2026-04-30 21:56 -22.91562 -43.16251 22 ft 24 kts 177°
2026-04-30 21:57 -22.91606 -43.16288 20 ft 6 kts 308°
2026-04-30 21:57 -22.91558 -43.16345 22 ft 14 kts 315°
2026-04-30 21:57 -22.91468 -43.16437 22 ft 19 kts 318°
2026-04-30 21:57 -22.91372 -43.16503 22 ft 16 kts 357°
2026-04-30 21:58 -22.91292 -43.16508 25 ft 13 kts 355°
2026-04-30 21:58 -22.91194 -43.16515 22 ft 15 kts 356°
2026-04-30 21:58 -22.91116 -43.16522 22 ft 0 kts 346°
2026-04-30 21:58 -22.91099 -43.16528 24 ft 4 kts 334°
2026-04-30 21:59 -22.91097 -43.16569 25 ft 8 kts 267°
2026-04-30 21:59 -22.91098 -43.16593 24 ft 0 kts 266°